Location: Gipe Farm
(40.9466°N, 95.5370°W)
Time: 13:18:44
(UTC-05:00)

Cosmos 1842 - Visible Passes

Search period start: 28 April 2015 00:00
Search period end: 08 May 2015 00:00
Orbit: 530 x 548 km, 82.5° (Epoch: 27 April)

Date Brightness Start Highest point End Pass type
(mag) Time Alt. Az. Time Alt. Az. Time Alt. Az.
28 Apr 5.0 03:27:59 28° NNW 03:27:59 28° NNW 03:30:00 10° N visible
29 Apr 5.1 03:20:27 26° NNW 03:20:27 26° NNW 03:22:21 10° N visible
30 Apr 5.2 03:12:53 25° NNW 03:12:53 25° NNW 03:14:42 10° N visible
01 May 5.3 03:05:19 24° NNW 03:05:19 24° NNW 03:07:04 10° N visible
02 May 5.3 02:57:43 24° NNW 02:57:43 24° NNW 02:59:24 10° N visible
03 May 5.4 02:50:07 23° N 02:50:07 23° N 02:51:45 10° N visible
04 May 5.5 02:42:29 23° N 02:42:29 23° N 02:44:04 10° N visible
05 May 5.5 02:34:50 22° N 02:34:50 22° N 02:36:24 10° N visible
06 May 5.5 02:27:10 22° N 02:27:10 22° N 02:28:43 10° N visible
07 May 5.5 02:19:29 22° N 02:19:29 22° N 02:21:01 10° N visible
